Weather History for Lewisburg, WV

Change the Weather History Date:

Thursday, June 26, 2014

  Actual Average Record
Temperature  
Mean Temperature 73 °F 69 °F  
Max Temperature 83 °F 81 °F 89 °F (1988)
Min Temperature 63 °F 57 °F 45 °F (1979)
Degree Days  
Heating Degree Days 0    
Month to date heating degree days 13  
Since 1 June heating degree days 13  
Cooling Degree Days 8    
Month to date cooling degree days 135  
Year to date cooling degree days 168  
Since 1 June cooling degree days 135  
Growing Degree Days 22 (Base 50)    
Moisture  
Dew Point 61 °F    
Average Humidity 67    
Maximum Humidity 93    
Minimum Humidity 41    
Precipitation  
Precipitation 0.00 in 0.12 in 0.72 in (1987)
Month to date precipitation 3.33 3.26  
Year to date precipitation 14.26 20.44  
Snow  
Snow 0.00 in - - ()
Month to date snowfall 0.0  
Since 1 June snowfall 0.0  
Snow Depth 0.00 in    
Sea Level Pressure  
Sea Level Pressure 30.08 in    
Wind  
Wind Speed 3 mph (NW)    
Max Wind Speed 10 mph    
Max Gust Speed -    
Visibility 9 miles    
Events      
T = Trace of Precipitation, MM = Missing Value Source: NWS Daily Summary

Daily Weather History Graph

Daily Weather History Graph

Search for Another Location

Airport:

Trip Planner

Search our weather history database for the weather conditions in past years. The results will help you decide how hot, cold, wet, or windy it might be!

Date:

Astronomy

Jun. 26, 2014 Rise Set
Actual Time 6:01 AM EDT 8:47 PM EDT
Civil Twilight 5:29 AM EDT 9:19 PM EDT
Nautical Twilight 4:50 AM EDT 9:58 PM EDT
Astronomical Twilight 4:05 AM EDT 10:42 PM EDT
Moon 5:37 AM EDT (6/26) 8:09 PM EDT (6/26)
Length of Visible Light 15h 49m
Length of Day
14h 46m
Waning Crescent, 0% of the Moon is Illuminated
Jun 26
Waning Crescent
Jun 27
New
Jul 5
First Quarter
Jul 12
Full
Jul 18
Last Quarter

Hourly Weather History & Observations

Time (EDT) Temp. Heat Index Dew Point Humidity Pressure Visibility Wind Dir Wind Speed Gust Speed Precip Events Conditions
12:15 AM 66.6 °F - 63.0 °F 88% 30.05 in 10.0 mi Calm Calm - N/A   Scattered Clouds
12:35 AM 65.7 °F - 62.6 °F 90% 30.05 in 7.0 mi Calm Calm - N/A   Clear
12:55 AM 65.3 °F - 62.4 °F 90% 30.05 in 7.0 mi South 3.5 mph - N/A   Clear
1:15 AM 64.9 °F - 62.1 °F 90% 30.05 in 7.0 mi Calm Calm - N/A   Clear
1:35 AM 65.5 °F - 63.1 °F 92% 30.06 in 7.0 mi Calm Calm - N/A   Scattered Clouds
1:55 AM 65.5 °F - 62.6 °F 90% 30.07 in 10.0 mi Calm Calm - N/A   Mostly Cloudy
2:15 AM 64.6 °F - 62.2 °F 92% 30.07 in 7.0 mi Calm Calm - N/A   Scattered Clouds
2:35 AM 65.3 °F - 62.6 °F 91% 30.07 in 10.0 mi Calm Calm - N/A   Scattered Clouds
2:55 AM 66.6 °F - 62.8 °F 88% 30.06 in 10.0 mi SW 3.5 mph - N/A   Scattered Clouds
3:15 AM 65.3 °F - 62.2 °F 90% 30.06 in 7.0 mi Calm Calm - N/A   Scattered Clouds
3:35 AM 67.3 °F - 63.9 °F 89% 30.06 in 10.0 mi Calm Calm - N/A   Mostly Cloudy
4:15 AM 64.6 °F - 60.6 °F 87% 30.05 in 5.0 mi South 3.5 mph - N/A   Clear
4:35 AM 64.2 °F - 61.2 °F 90% 30.06 in 5.0 mi Calm Calm - N/A   Clear
4:55 AM 63.9 °F - 61.7 °F 93% 30.06 in 5.0 mi Calm Calm - N/A   Clear
5:15 AM 66.2 °F - 63.0 °F 89% 30.06 in 10.0 mi Calm Calm - N/A   Clear
5:35 AM 63.5 °F - 60.8 °F 91% 30.07 in 7.0 mi Calm Calm - N/A   Clear
5:55 AM 63.1 °F - 60.8 °F 92% 30.07 in 5.0 mi Calm Calm - N/A   Clear
6:15 AM 63.3 °F - 61.0 °F 92% 30.08 in 5.0 mi Calm Calm - N/A   Scattered Clouds
6:35 AM 64.4 °F - 62.2 °F 93% 30.08 in 5.0 mi SW 3.5 mph - N/A   Mostly Cloudy
6:55 AM 66.7 °F - 62.6 °F 86% 30.08 in 10.0 mi Calm Calm - N/A   Mostly Cloudy
7:15 AM 68.7 °F - 62.4 °F 80% 30.08 in 10.0 mi Calm Calm - N/A   Overcast
7:35 AM 68.0 °F - 62.8 °F 83% 30.08 in 10.0 mi Calm Calm - N/A   Scattered Clouds
7:55 AM 67.8 °F - 62.6 °F 83% 30.09 in 10.0 mi Calm Calm - N/A   Clear
8:15 AM 70.0 °F - 63.5 °F 80% 30.09 in 10.0 mi West 3.5 mph - N/A   Clear
8:35 AM 71.6 °F - 64.0 °F 77% 30.10 in 10.0 mi NW 4.6 mph - N/A   Clear
8:55 AM 72.5 °F - 64.4 °F 76% 30.10 in 10.0 mi NW 4.6 mph - N/A   Clear
9:15 AM 72.9 °F - 64.2 °F 74% 30.10 in 10.0 mi West 4.6 mph - N/A   Clear
9:35 AM 74.5 °F - 63.5 °F 68% 30.10 in 10.0 mi West 5.8 mph - N/A   Scattered Clouds
9:55 AM 74.3 °F - 63.3 °F 68% 30.10 in 10.0 mi NW 3.5 mph - N/A   Scattered Clouds
10:15 AM 75.4 °F - 62.4 °F 64% 30.10 in 10.0 mi North 5.8 mph - N/A   Scattered Clouds
10:35 AM 75.9 °F - 62.6 °F 63% 30.10 in 10.0 mi West 3.5 mph - N/A   Mostly Cloudy
10:55 AM 75.4 °F - 62.4 °F 64% 30.10 in 10.0 mi NW 5.8 mph - N/A   Overcast
11:15 AM 77.7 °F - 62.2 °F 59% 30.10 in 10.0 mi NW 4.6 mph - N/A   Scattered Clouds
11:35 AM 78.1 °F - 60.8 °F 55% 30.10 in 10.0 mi NW 3.5 mph - N/A   Scattered Clouds
11:55 AM 78.6 °F - 61.0 °F 55% 30.10 in 10.0 mi North 4.6 mph - N/A   Scattered Clouds
12:15 PM 79.5 °F - 62.1 °F 55% 30.10 in 10.0 mi NNW 5.8 mph - N/A   Mostly Cloudy
12:35 PM 79.7 °F - 59.5 °F 50% 30.09 in 10.0 mi WNW 6.9 mph - N/A   Scattered Clouds
12:55 PM 80.6 °F 81.1 °F 59.0 °F 48% 30.09 in 10.0 mi Calm Calm - N/A   Scattered Clouds
1:15 PM 81.5 °F 81.5 °F 57.9 °F 44% 30.08 in 10.0 mi North 8.1 mph - N/A   Scattered Clouds
1:35 PM 81.9 °F 82.1 °F 59.0 °F 46% 30.08 in 10.0 mi NW 6.9 mph - N/A   Scattered Clouds
1:55 PM 81.9 °F 81.9 °F 58.8 °F 45% 30.07 in 10.0 mi NW 5.8 mph - N/A   Scattered Clouds
2:15 PM 81.5 °F 81.6 °F 58.1 °F 45% 30.07 in 10.0 mi NW 5.8 mph - N/A   Scattered Clouds
2:35 PM 82.4 °F 81.8 °F 56.1 °F 40% 30.07 in 10.0 mi WNW 4.6 mph - N/A   Scattered Clouds
2:55 PM 82.9 °F 82.3 °F 56.5 °F 40% 30.06 in 10.0 mi West 8.1 mph - N/A   Scattered Clouds
3:15 PM 81.0 °F 81.2 °F 58.6 °F 46% 30.06 in 10.0 mi NW 3.5 mph - N/A   Mostly Cloudy
3:35 PM 82.0 °F 82.2 °F 59.2 °F 46% 30.05 in 10.0 mi North 3.5 mph - N/A   Mostly Cloudy
3:55 PM 81.9 °F 81.9 °F 58.8 °F 45% 30.05 in 10.0 mi NW 4.6 mph - N/A   Scattered Clouds
4:15 PM 81.5 °F 81.7 °F 58.6 °F 46% 30.05 in 10.0 mi NNW 6.9 mph - N/A   Scattered Clouds
4:35 PM 81.5 °F 82.4 °F 61.5 °F 51% 30.05 in 10.0 mi North 9.2 mph - N/A   Scattered Clouds
5:15 PM 81.9 °F 82.1 °F 59.4 °F 46% 30.05 in 10.0 mi North 10.4 mph - N/A   Clear
5:35 PM 81.3 °F 82.1 °F 60.8 °F 50% 30.05 in 10.0 mi NNE 9.2 mph - N/A   Clear
5:55 PM 81.1 °F 81.6 °F 59.9 °F 48% 30.04 in 10.0 mi North 9.2 mph - N/A   Clear
6:15 PM 80.2 °F 80.9 °F 59.4 °F 49% 30.04 in 10.0 mi North 5.8 mph - N/A   Clear
6:35 PM 79.7 °F - 57.2 °F 46% 30.05 in 10.0 mi North 6.9 mph - N/A   Clear
6:55 PM 78.6 °F - 58.5 °F 50% 30.05 in 10.0 mi North 6.9 mph - N/A   Clear
7:35 PM 77.0 °F - 59.4 °F 54% 30.06 in 10.0 mi NNW 3.5 mph - N/A   Clear
7:55 PM 76.5 °F - 60.1 °F 57% 30.07 in 10.0 mi Calm Calm - N/A   Clear
8:15 PM 76.3 °F - 60.1 °F 57% 30.08 in 10.0 mi NNW 3.5 mph - N/A   Clear
9:15 PM 71.6 °F - 60.8 °F 69% 30.09 in 10.0 mi Calm Calm - N/A   Clear
9:35 PM 72.9 °F - 60.3 °F 65% 30.10 in 10.0 mi Calm Calm - N/A   Clear
9:55 PM 70.7 °F - 60.6 °F 70% 30.10 in 10.0 mi Calm Calm - N/A   Clear
10:15 PM 70.7 °F - 61.2 °F 72% 30.10 in 10.0 mi North 3.5 mph - N/A   Clear
10:35 PM 69.8 °F - 60.8 °F 73% 30.10 in 10.0 mi North 4.6 mph - N/A   Clear
10:55 PM 68.0 °F - 61.0 °F 78% 30.11 in 10.0 mi Calm Calm - N/A   Clear
11:15 PM 68.2 °F - 61.3 °F 79% 30.11 in 10.0 mi North 4.6 mph - N/A   Clear
11:35 PM 66.4 °F - 60.6 °F 82% 30.11 in 10.0 mi Calm Calm - N/A   Clear
11:55 PM 67.8 °F - 60.8 °F 78% 30.12 in 10.0 mi Calm Calm - N/A   Clear